STARLINK-35047 (65806 NORAD) Tracking and Keplerian Element Data

This shows tracking and keplerian element data for the satellite.

Feedback or suggestion? Click here.




ElementValue
Catalog65806
NameSTARLINK-35047
Epoch Orbit1300
Epoch Day354.16611294
Epoch Year2025
RAAN214.5685
Inclination97.6025
Eccentricity0.0002056
Argument of Perigee89.5333
Mean Anonmoly270.6129
Mean Motion15.05650807
Decay Rate2.514E-05
L11 65806U 25218R 25354.16611294 .00002514 00000+0 17836-3 0 9991
L22 65806 97.6025 214.5685 0002056 89.5333 270.6129 15.05650807 13009



Live tracking and technical data element details for STARLINK-35047 (NORAD 65806). STARLINK-35047 can be tracked NOW for your location showing map with azimuth and elevation plus other details from your city location.







IsCatalogInMostPopularTable: catalog: 65806, numindb: 4
Update: records affected: 1



GetName: 65806 STARLINK-35047

Hit Count: updated at: Sat, 07 Feb 2026 07:21:38 GMT